www.pogodaiklimat.ru

Архив погоды в Браззавиле (Конго)

Время
(UTC), дата
00 16.04
03 16.04
06 16.04
09 16.04
12 16.04
15 16.04
18 16.04
21 16.04
00 17.04
03 17.04
06 17.04
09 17.04
12 17.04
15 17.04
18 17.04
21 17.04
00 18.04
06 18.04
09 18.04
12 18.04
15 18.04
18 18.04
21 18.04
00 19.04
03 19.04
06 19.04
09 19.04
12 19.04
15 19.04
18 19.04
21 19.04
00 20.04
03 20.04
06 20.04
09 20.04
12 20.04
15 20.04
18 20.04
21 20.04
00 21.04
03 21.04
06 21.04
09 21.04
12 21.04
15 21.04
18 21.04
21 21.04
00 22.04
03 22.04
06 22.04
09 22.04
12 22.04
15 22.04
18 22.04
21 22.04
Ветер
(напр.,м/с)
Видим. Явления Облачность Т
(С)
Тd
(С)
f
(%)
Тe
(С)
Тes
(С)
Комфортность P
(гПа)
Po
(гПа)
Тmin
(С)
Tmax
(С)
R
(мм)
R24
(мм)
S
(см)
С 3 10 км гроза без осадков 10/4 300 м
[Cb cap Ac As]
+25.5 +22.6 84 +35 +35 очень душно 1010.6 976.0
нст 2 10 км гроза без осадков {дождь} 10/8 300 м
[Cb cap Ac As]
+23.0 +22.0 94 +31 +31 очень душно 1012.0 975.8
штиль 0 15 км {гроза, дождь} 9/1 300 м
[Cu hum Ac trans Ci sp]
+24.0 +23.0 94 +32 +33 очень душно 1013.0 976.9 +22.8 21.0
ЮЗ 1 15 км 9/1 400 м
[Cu hum Ac trans]
+29.0 +23.8 74 +40 +53 опасность солнечного удара 1011.2 976.3
нст 2 6000 м мгла 8/6 600 м
[Cu Sc Ac trans Ci fib]
+32.0 +25.0 67 +46 +55 очень душно 1010.0 975.0
ЮЗ 3 10 км 5/5 600 м +33.0 +24.0 59 +45 +47 очень душно 1007.0 972.1
ЮВ 3 8000 м гроза, ливневой дождь 10/8 300 м
[Cb cap As op]
+24.6 +23.4 89 +33 +33 очень душно 1009.1 973.9 +34.3 3
ЮЗ 2 10 км гроза без осадков 2/2 390 м
[Cb]
+24.0 +23.0 94 +32 +32 очень душно 1012.0 975.9
З 3 н/о 2/2 390 м +24.0 +23.0 94 +32 +32 очень душно 1011.0 974.9
СВ 1 10 км 9/9 300 м
[Cu Sc]
+23.5 +22.9 94 +32 +32 очень душно 1009.0 974.3
штиль 0 10 км слаб. дождь 9/9 300 м
[Cu Sc]
+23.9 +23.3 94 +32 +33 очень душно 1009.9 974.7 +23.2 7 6.7
нст 1 10 км {дождь} 9/3 480 м
[Cu med, cong Ac trans]
+29.0 +24.0 74 +40 +49 очень душно 1013.0 977.5
нст 1 10 км {дождь} 8/1 600 м
[Cb cap Ci sp]
+32.0 +24.0 63 +44 +62 очень душно 1010.0 974.9
нст 1 10 км 8/3 600 м
[Cb cap Ci ing]
+33.0 +23.0 56 +43 +48 очень душно 1008.0 973.1
штиль 0 10 км зарница 1/1 900 м
[Cb cap]
+29.1 +25.2 80 +42 +42 очень душно 1006.8 972.0 +33.6 0.0
штиль 0 н/о ясно +27.0 +25.0 89 +39 +39 очень душно 1011.0 975.3
З 1 н/о гроза без осадков 2/2 900 м
[Cb]
+27.0 +25.0 89 +39 +39 очень душно 1011.0 975.3
З 3 15 км 10/1 400 м
[Cb cap Ac trans]
+25.0 +23.9 94 +34 +35 очень душно 1010.5 975.6 +24.8 0.0
З 4 10 км 5/5 480 м +28.0 +23.0 74 +37 +43 очень душно 1014.0 978.3
ЮВ 6 6000 м гроза, ливневой дождь 10/5 480 м
[Cb cap As op]
+27.0 +24.0 84 +37 +39 очень душно 1014.0 978.2 0.6
нст 2 8000 м гроза без осадков {дождь} 10/8 400 м
[Cb cap Ac As]
+24.0 +22.0 89 +31 +34 очень душно 1012.0 975.9 11
ЮЗ 3 10 км {гроза, дождь} 9/4 600 м
[Sc Ac As]
+23.3 +22.4 94 +31 +31 очень душно 1009.6 974.4 +30.5 11
нст 1 10 км 9/5 300 м
[Cu Sc Ac As]
+24.0 +22.0 89 +31 +31 очень душно 1014.0 977.8
З 1 10 км 9/1 300 м
[Cu hum Ac trans Ci sp]
+22.5 +22.1 94 +31 +31 очень душно 1010.1 974.9
З 2 н/о ясно +22.0 +22.0 100 +29 +29 очень душно 1011.0 974.7
З 1 10 км 10/4 300 м
[Cu Sc Ac As]
+22.5 +22.4 94 +31 +32 очень душно 1011.5 976.1 +21.9 11.0
СВ 4 10 км 9/8 300 м
[Cu Sc Ac trans]
+27.0 +24.0 84 +37 +40 очень душно 1016.0 980.1
С 3 20 км 8/3 700 м
[Cb cap Ac trans Ci sp]
+31.0 +24.0 66 +43 +55 очень душно 1012.0 976.7
СВ 2 20 км 8/1 600 м
[Cb cap Ac lent Ci sp]
+32.5 +22.2 52 +41 +45 очень душно 1006.9 972.1
нст 2 10 км зарница 6/1 900 м
[Cb cap Ac cast]
+28.0 +23.0 74 +37 +37 очень душно 1012.0 976.4 +33.5
ЮЗ 3 10 км зарница 8/1 600 м
[Cb cap Ac trans]
+24.5 +22.8 89 +33 +33 очень душно 1010.9 975.8
З 2 10 км зарница 8/1 900 м
[Cb cap Ac trans]
+25.0 +23.0 89 +33 +33 очень душно 1011.0 975.1
ЮЗ 1 10 км зарница 8/3 600 м
[Cb cap Ac trans]
+23.7 +22.2 89 +31 +31 очень душно 1007.6 972.9
З 1 10 км 8/0
[Ac trans Ci fib]
+23.7 +22.7 94 +31 +32 очень душно 1009.0 973.9 +22.8
ЮВ 2 10 км 9/1 450 м
[Cu hum Ac trans]
+30.0 +23.0 66 +40 +52 опасность солнечного удара 1012.0 976.6
В 2 9000 м мгла 6/3 600 м
[Cu med, cong Ac trans Ci sp]
+33.8 +24.0 56 +46 +58 очень душно 1006.0 971.5
ЮВ 2 9000 м мгла 6/4 600 м
[Cu med, cong Ac trans Ci sp]
+34.8 +24.2 53 +47 +50 очень душно 1003.7 969.3
СВ 2 9000 м мгла 6/1 900 м
[Cb cap Ac trans Ci sp]
+31.0 +24.0 66 +43 +43 очень душно 1008.0 972.9 +35.6
В 2 10 км зарница 4/1 600 м
[Cb cap Ci sp]
+29.0 +25.0 79 +42 +42 очень душно 1006.8 972.2
ЮЗ 3 10 км зарница 9/1 900 м
[Cb cap Ci sp]
+26.8 +24.5 89 +39 +39 очень душно 1006.0 971.6
З 2 10 км 9/1 600 м
[Sc Ac trans Ci sp]
+26.0 +23.0 84 +35 +35 очень душно 1009.0 973.2
ЮЗ 1 10 км 9/0
[Ac trans Ci sp]
+25.2 +23.6 94 +34 +36 очень душно 1007.5 972.8 +24.5
нст 2 н/о 2/2 480 м +31.0 +25.0 70 +44 +56 очень душно 1011.0 975.8
СВ 4 9000 м гроза без осадков 8/4 800 м
[Cb cap Ac cuf Ci sp]
+36.0 +24.0 50 +47 +58 опасность перегрева 1008.0 973.4
З 3 10 км гроза без осадков {дождь} 9/4 600 м
[Cb cap Ac cuf Ci ing]
+27.8 +23.5 79 +39 +41 очень душно 1003.8 969.1 4
ЮЗ 3 10 км {гроза, дождь} 9/1 900 м
[Cb cap Ac trans Ci sp]
+27.0 +24.0 84 +37 +37 очень душно 1008.0 972.4 +36.0 4
ЮЗ 3 10 км 9/9 750 м
[Cb cap]
+25.7 +23.6 88 +35 +35 очень душно 1008.1 973.4
ЮВ 4 10 км слаб. дождь 9/9 750 м
[Cb cap]
+25.0 +22.0 83 +32 +32 очень душно 1011.0 975.0 0.0
В 5 н/о гроза без осадков 2/2 840 м
[Cb]
+25.0 +22.0 83 +32 +32 очень душно 1010.0 974.1
нст 1 10 км {дождь} 8/1 300 м
[Cu hum Ac trans Ci sp]
+24.0 +22.0 89 +31 +33 очень душно 1010.0 974.0 +23.5 4 4.4
нст 2 10 км 8/1 300 м
[Cu hum Ac trans Ci sp]
+29.0 +22.0 66 +37 +50 очень душно 1011.0 975.5
З 2 10 км {гроза} 8/3 400 м
[Cu med, cong Ac lent Ci sp]
+32.0 +22.3 56 +41 +56 очень душно 1005.7 971.1
ЮЗ 4 15 км 8/1 600 м
[Cb cap Ac trans Ci ing]
+33.0 +25.0 63 +47 +49 очень душно 1006.0 971.2
нст 1 10 км зарница 9/3 800 м
[Cb cap Ac As]
+31.0 +24.0 66 +43 +43 очень душно 1009.0 973.9 +35.5
нст 1 9000 м гроза, ливневой дождь 10/4 700 м
[Cb cap As op]
+26.0 +23.0 84 +35 +35 очень душно 1012.0 976.1 0.1
Местоположение метеостанции Браззавиль (Конго): широта -4.25 долгота 15.25 высота над уровнем моря 316 м.
В архиве по умолчанию представлена погода в Браззавиле за последнюю неделю. Архивные данные за месяц целиком и за предыдущие месяцы, начиная с января 2011 года, Вы можете получить, выбрав интересующий диапазон дат из раскрывающегося списка и нажав кнопку "Найти!".
*Определитесь, кто Вы:
Внимание! Время в таблицах - всемирное. Для получения местного времени необходимо прибавить поправку, которая равна 1 ч.
Некоторые строки с данными для отдельных станций могут быть выделены курсивом. Это означает, что фактические данные отсутствуют по различным причинам, а приведенные значения являются расчетными модельными данными для данного пункта наблюдений.
Смотрите также архив погоды в соседних городах и на ближайших метеорологических станциях:
Партнеры нашего сайта:      
Пояснения к столбцам:
  • Ветер - указаны скорость ветра в м/с - средняя за 10 мин, порывы в срок и между сроками (в фигурных скобках) и направление, откуда дует ветер: С - северный,
  • СВ - северо-восточный, В - восточный, ЮВ - юго-восточный, Ю - южный, ЮЗ - юго-западный, З - западный, СЗ - северо-западный.
  • Видимость - горизонтальная дальность видимости в метрах или километрах. При видимости от 1 до 10 км при отсутствии осадков обычно наблюдается дымка, при ухудшении видимости до 1 км и менее - туман. В сухую погоду видимость может ухудшаться дымом, пылью или мглою.
  • Явления - указаны атмосферные явления, наблюдавшиеся в срок или в последний час перед сроком; фигурными скобками обозначены явления, наблюдавшиеся между сроками (за 1-3 часа до срока); квадратными скобками обозначены град или гололедные отложения с указанием их диаметра в мм.
  • Облачность - указаны через наклонную черту общая и нижняя облачность в баллах и высота нижней границы облаков в метрах; квадратными скобками обозначены формы облаков: Ci - перистые, Cs - перисто-слоистые, Cc - перисто-кучевые, Ac - высококучевые, As - высокослоистые, Sc - слоисто-кучевые, Ns - слоисто-дождевые, Cu - кучевые, Cb - кучево-дождевые. Подробнее классификацию облаков см. в Атласе облаков (PDF).
  • T - Температура воздуха - температура, измеренная на высоте 2 м над землей.
  • Td - Температура точки росы - температура, при понижении до которой содержащийся в воздухе водяной пар достигнет насыщения.
  • f - Относительная влажность воздуха - влажноcть воздуха, измеренная на высоте 2 м над землей.
  • Te - Эффективная температура - температура, которую ощущает одетый по сезону человек в тени. Характеристика душности погоды. При расчете учитывается влияние влажности воздуха и скорости ветра на теплоощущения человека.
  • Tes - Эффективная температура на солнце - температура, которую ощущает человек, с поправкой на солнечный нагрев. Характеристика знойности погоды. Зависит от высоты солнца над горизонтом, облачности и скорости ветра. Ночью, в пасмурную погоду, а также при ветре 12 м/с и более поправка равна нулю.
  • P - Атмосферное давление - приведенное к уровню моря атмосферное давление.
  • Po - Атмосферное давление - измеренное на уровне метеостанции атмосферное давление.
  • Tmin - Минимальная температура - минимум температуры воздуха на высоте 2 м над землей.
  • Tmax - Максимальная температура - максимум температуры воздуха на высоте 2 м над землей.
  • R - Количество осадков - Количество выпавших осадков за период времени, мм. При наведении курсора мыши на число - период времени, за который выпало указанное количество осадков.
  • R24 - Количество осадков - Количество выпавших осадков за 24 часа, мм.
  • S - Снежный покров - Высота снежного покрова, см. При наведении курсора мыши на число - состояние снежного покрова и степень покрытия местности в баллах.